Cosmos 1340 - Orbit

View from above orbital plane
View from above orbital plane
View from above satellite
View from above satellite

Ground track
Ground track

The orbit data is extracted from the following two-line orbital elements,

1 13067U 82013A   13142.84000208  .00003538  00000-0  21827-3 0  1044
2 13067 081.1927 056.4681 0005506 100.0700 320.5792 15.09685439702705
Epoch (UTC): 22 May 2013 20:09:36
Eccentricity: 0.0005506
inclination: 81.1927°
perigee height: 533 km
apogee height: 541 km
right ascension of ascending node: 56.4681°
argument of perigee: 100.0700°
revolutions per day: 15.09685439
mean anomaly at epoch: 320.5792°
orbit number at epoch: 70270

The dashed part of the orbit path shows where the satellite is in the earth's shadow,  

Developed and maintained by Chris Peat, Heavens-Above GmbH. Please read the updated FAQ before sending e-mail. Imprint. DLR